FW9150 Weather Reports


time (UTC)temp
F
wind
direction
speed
knots
gust
knots
rain 1hr
in
rain 24hr
in
rain mn
in
humidity
%
barometer
mb
20260905202915 62 225 0.0 1.7 0.00 0.00 0.00 56 1021.6
20260905201912 62 234 0.0 1.7 0.00 0.00 0.00 56 1021.7
20260905201012 62 189 0.9 2.6 0.00 0.00 0.00 56 1021.7
20260905195113 61 202 0.9 3.5 0.00 0.00 0.00 58 1021.8
20260905193114 61 225 1.7 2.6 0.00 0.00 0.00 58 1021.9
20260905192130 62 205 0.9 1.7 0.00 0.00 0.00 57 1021.8
20260905190214 63 220 0.9 3.5 0.00 0.00 0.00 53 1021.9
20260905185212 63 214 1.7 4.3 0.00 0.00 0.00 53 1021.8
20260905184312 62 193 2.6 4.3 0.00 0.00 0.00 56 1021.8
20260905182313 61 226 1.7 3.5 0.00 0.00 0.00 56 1021.9
20260905181314 61 205 1.7 3.5 0.00 0.00 0.00 57 1021.9
20260905180312 61 237 2.6 4.3 0.00 0.00 0.00 56 1021.8
20260905175316 60 159 1.7 5.2 0.00 0.00 0.00 58 1021.5
20260905173413 59 217 0.9 1.7 0.00 0.00 0.00 61 1021.6
20260905172413 58 221 0.0 0.9 0.00 0.00 0.00 63 1021.6
20260905171413 58 199 2.6 4.3 0.00 0.00 0.00 62 1021.6
20260905170512 58 190 0.9 1.7 0.00 0.00 0.00 64 1021.5
20260905164515 58 155 2.6 4.3 0.00 0.00 0.00 64 1021.4
20260905162513 57 157 0.0 0.9 0.00 0.00 0.00 66 1021.5
20260905161515 56 180 0.0 0.9 0.00 0.00 0.00 68 1021.4
20260905160612 56 180 0.0 0.9 0.00 0.00 0.00 69 1021.4
20260905155613 55 157 0.0 0.0 0.00 0.00 0.00 70 1021.3
20260905154712 55 157 0.0 0.9 0.00 0.00 0.00 71 1021.3
20260905153714 54 157 0.0 0.0 0.00 0.00 0.00 72 1021.3
20260905152713 53 180 0.0 0.9 0.00 0.00 0.00 72 1021.3
20260905151714 53 157 0.0 0.0 0.00 0.00 0.00 74 1021.1
20260905150728 52 157 0.9 1.7 0.00 0.00 0.00 76 1021.0
20260905145811 51 157 0.9 1.7 0.00 0.00 0.00 77 1021.0
20260905144814 51 180 0.0 0.0 0.00 0.00 0.00 77 1020.9
20260905142813 50 180 0.0 0.0 0.00 0.00 0.00 78 1021.1
20260905141814 50 180 0.0 0.0 0.00 0.00 0.00 79 1020.9
20260905140815 50 180 0.0 0.0 0.00 0.00 0.00 77 1020.7
20260905134912 50 180 0.0 0.0 0.00 0.00 0.00 76 1020.6
20260905133914 51 180 0.0 0.0 0.00 0.00 0.00 76 1020.5
20260905132930 51 180 0.0 0.0 0.00 0.00 0.00 76 1020.4
20260905132014 51 180 0.0 0.0 0.00 0.00 0.00 75 1020.3
20260905131016 50 315 0.0 0.0 0.00 0.00 0.00 76 1020.1
20260905130012 50 315 0.0 0.0 0.00 0.00 0.00 75 1020.3
20260905125016 50 315 0.0 0.0 0.00 0.00 0.00 74 1020.3
20260905124014 50 315 0.0 0.0 0.00 0.00 0.00 74 1020.4
20260905123014 50 315 0.0 0.0 0.00 0.00 0.00 75 1020.5
20260905122014 51 315 0.0 0.0 0.00 0.00 0.00 73 1020.5
20260905121112 51 315 0.0 0.0 0.00 0.00 0.00 73 1020.5
20260905120116 51 315 0.0 0.0 0.00 0.00 0.00 74 1020.5
20260905115114 51 315 0.0 0.0 0.00 0.00 0.00 73 1020.5
20260905113212 51 315 0.0 0.0 0.00 0.00 0.00 74 1020.6
20260905112214 51 315 0.0 0.0 0.00 0.00 0.00 72 1020.5
20260905111214 51 315 0.0 0.0 0.00 0.00 0.00 73 1020.5
20260905105313 51 315 0.0 0.0 0.00 0.00 0.00 72 1020.5
20260905104314 51 315 0.0 0.0 0.00 0.00 0.00 73 1020.7
20260905103313 51 315 0.0 0.0 0.00 0.00 0.00 72 1020.7
20260905102313 51 315 0.0 0.0 0.00 0.00 0.00 73 1020.9
20260905101412 51 315 0.0 0.0 0.00 0.00 0.00 71 1020.6
20260905100429 51 315 0.0 0.0 0.00 0.00 0.00 72 1020.7
20260905095513 51 315 0.0 0.0 0.00 0.00 0.00 70 1020.7
20260905094513 51 315 0.0 0.0 0.00 0.00 0.00 70 1020.9
20260905093513 51 315 0.0 0.0 0.00 0.00 0.00 70 1020.8
20260905091514 51 315 0.0 0.0 0.00 0.00 0.00 71 1020.9
20260905090514 51 315 0.0 0.0 0.00 0.00 0.00 70 1020.9
20260905085611 51 315 0.0 0.0 0.00 0.00 0.00 71 1020.9
20260905084614 50 315 0.0 0.0 0.00 0.00 0.00 70 1020.9
20260905083713 50 315 0.0 0.0 0.00 0.00 0.00 71 1020.9
20260905082715 50 315 0.0 0.0 0.00 0.00 0.00 71 1021.1
20260905080812 49 315 0.0 0.0 0.00 0.00 0.00 71 1021.1
20260905075911 48 315 0.0 0.0 0.00 0.00 0.00 71 1021.1
20260905074912 48 180 0.0 0.0 0.00 0.00 0.00 73 1021.1
20260905073929 48 180 0.0 0.0 0.00 0.00 0.00 73 1021.1
20260905073014 48 180 0.0 0.0 0.00 0.00 0.00 72 1021.1
20260905072015 48 180 0.0 0.0 0.00 0.00 0.00 73 1021.1
20260905071014 48 180 0.0 0.0 0.00 0.00 0.00 73 1021.1
20260905065112 48 180 0.0 0.0 0.00 0.00 0.00 73 1020.8
20260905064115 48 180 0.0 0.0 0.00 0.00 0.00 74 1020.9
20260905062212 48 180 0.0 0.0 0.00 0.00 0.00 73 1020.9
20260905061213 48 180 0.0 0.0 0.00 0.00 0.00 74 1020.9
20260905060212 48 180 0.0 0.0 0.00 0.00 0.00 72 1020.9
20260905055230 49 180 0.0 0.0 0.00 0.00 0.00 72 1020.9
20260905054315 49 180 0.0 0.0 0.00 0.00 0.00 73 1020.9
20260905053412 49 180 0.0 0.0 0.00 0.00 0.00 73 1020.9
20260905052431 48 180 0.0 0.0 0.00 0.00 0.00 74 1020.9
20260905051415 48 180 0.0 0.0 0.00 0.00 0.00 73 1021.1
20260905050415 48 180 0.0 0.0 0.00 0.00 0.00 73 1021.0
20260905045412 48 180 0.0 0.0 0.00 0.00 0.00 73 1020.9
20260905044429 48 180 0.0 0.0 0.00 0.00 0.00 73 1020.9
20260905042513 48 180 0.0 0.0 0.00 0.00 0.00 73 1020.7
20260905041514 48 180 0.0 0.0 0.00 0.00 0.00 72 1020.7
20260905040612 48 180 0.0 0.0 0.00 0.00 0.00 71 1020.6
20260905034612 49 180 0.0 0.0 0.00 0.00 0.00 70 1020.3
20260905033612 49 180 0.0 0.0 0.00 0.00 0.00 68 1020.3
20260905032613 50 180 0.0 0.0 0.00 0.00 0.00 69 1020.3
20260905031613 50 180 0.0 0.0 0.00 0.00 0.00 69 1020.1
20260905030712 50 180 0.0 0.0 0.00 0.00 0.00 67 1019.9
20260905025712 51 180 0.0 0.0 0.00 0.00 0.00 65 1020.0
20260905024713 52 180 0.0 0.0 0.00 0.00 0.00 64 1019.9
20260905023813 52 180 0.0 0.0 0.00 0.00 0.00 64 1020.0
20260905020814 54 180 0.0 0.0 0.00 0.00 0.00 60 1020.0
20260905015812 54 180 0.0 0.0 0.00 0.00 0.00 60 1020.3
20260905013819 55 180 0.0 0.0 0.00 0.00 0.00 60 1020.0
20260905012917 55 225 0.0 0.0 0.00 0.00 0.00 60 1020.0
20260905011918 55 180 0.0 0.0 0.00 0.00 0.00 59 1020.1
20260905010917 55 180 0.0 0.9 0.00 0.00 0.00 60 1020.1
20260905005917 56 225 0.0 0.0 0.00 0.00 0.00 61 1020.1
20260905004918 56 157 0.0 1.7 0.00 0.00 0.00 61 1020.0
20260905002917 56 189 0.0 0.0 0.00 0.00 0.00 64 1020.3
20260905001919 56 180 0.0 0.0 0.00 0.00 0.00 64 1020.2
20260905000916 56 172 0.0 0.9 0.00 0.00 0.00 64 1020.3
20260904235919 56 199 1.7 2.6 0.00 0.00 0.00 66 1020.3
20260904234918 56 157 1.7 3.5 0.00 0.00 0.00 67 1020.2
20260904233016 56 225 0.9 2.6 0.00 0.00 0.00 66 1020.3
20260904232017 56 166 0.9 1.7 0.00 0.00 0.00 65 1020.1
20260904231116 56 157 1.7 3.5 0.00 0.00 0.00 67 1020.2
20260904230119 56 254 0.0 0.0 0.00 0.00 0.00 67 1020.1
20260904225216 56 225 0.0 1.7 0.00 0.00 0.00 69 1020.3
20260904223319 56 205 0.0 1.7 0.00 0.00 0.00 70 1020.3
20260904222318 56 242 1.7 3.5 0.00 0.00 0.00 70 1020.3
20260904221317 56 113 0.0 2.6 0.00 0.00 0.00 69 1020.1
20260904215417 56 261 0.9 3.5 0.00 0.00 0.00 71 1020.1
20260904214417 56 195 0.9 2.6 0.00 0.00 0.00 70 1020.1
20260904213419 56 247 1.7 3.5 0.00 0.00 0.00 72 1020.1
20260904212417 57 186 1.7 4.3 0.00 0.00 0.00 71 1019.9
20260904211416 56 198 1.7 5.2 0.00 0.00 0.00 71 1020.1
20260904210418 56 228 0.9 1.7 0.00 0.00 0.00 71 1020.1
20260904205517 56 214 0.0 1.7 0.00 0.00 0.00 72 1020.1
20260904204517 56 257 0.0 0.0 0.00 0.00 0.00 73 1020.0
20260904203519 56 247 0.9 1.7 0.00 0.00 0.00 71 1019.9